Weather History for Siren, WI

Change the Weather History Date:

Monday, April 21, 2014

  Actual Average Record
Temperature  
Mean Temperature 52 °F -  
Max Temperature 67 °F - - ()
Min Temperature 37 °F - - ()
Degree Days  
Heating Degree Days 14    
Growing Degree Days 2 (Base 50)    
Moisture  
Dew Point 34 °F    
Average Humidity 54    
Maximum Humidity 97    
Minimum Humidity 25    
Precipitation  
Precipitation 0.00 in - - ()
Sea Level Pressure  
Sea Level Pressure 29.94 in    
Wind  
Wind Speed 8 mph (NW)    
Max Wind Speed 24 mph    
Max Gust Speed 32 mph    
Visibility 10 miles    
Events      
T = Trace of Precipitation, MM = Missing Value Source: NWS Daily Summary

Daily Weather History Graph

Daily Weather History Graph

Search for Another Location

Airport:

Trip Planner

Search our weather history database for the weather conditions in past years. The results will help you decide how hot, cold, wet, or windy it might be!

Date:

Astronomy

Apr. 21, 2014 Rise Set
Actual Time 6:13 AM CDT 8:04 PM CDT
Civil Twilight 5:41 AM CDT 8:36 PM CDT
Nautical Twilight 5:02 AM CDT 9:15 PM CDT
Astronomical Twilight 4:20 AM CDT 9:57 PM CDT
Moon 1:39 AM CDT (4/21) 11:36 AM CDT (4/21)
Length of Visible Light 14h 54m
Length of Day
13h 51m
Waning Gibbous, 57% of the Moon is Illuminated
Apr 21
Waning Gibbous
Apr 22
Last Quarter
Apr 29
New
May 6
First Quarter
May 14
Full

Hourly Weather History & Observations

Time (CDT) Temp. Windchill Dew Point Humidity Pressure Visibility Wind Dir Wind Speed Gust Speed Precip Events Conditions
12:10 AM 43.3 °F - 31.3 °F 62% 29.96 in 10.0 mi Calm Calm - N/A   Clear
12:30 AM 41.4 °F 39.4 °F 32.0 °F 69% 29.96 in 10.0 mi ESE 3.5 mph - N/A   Clear
12:50 AM 41.0 °F 39.0 °F 32.0 °F 70% 29.95 in 10.0 mi SE 3.5 mph - N/A   Clear
1:10 AM 45.5 °F 43.2 °F 32.0 °F 59% 29.95 in 10.0 mi SE 4.6 mph - N/A   Clear
1:30 AM 50.9 °F - 32.0 °F 48% 29.94 in 10.0 mi SE 3.5 mph - N/A   Clear
1:50 AM 50.9 °F - 32.2 °F 49% 29.94 in 10.0 mi SE 3.5 mph - N/A   Clear
2:10 AM 47.8 °F - 32.9 °F 56% 29.94 in 10.0 mi SSE 4.6 mph - N/A   Clear
2:30 AM 49.1 °F - 32.9 °F 54% 29.93 in 10.0 mi SE 5.8 mph - N/A   Clear
2:50 AM 47.3 °F - 34.7 °F 62% 29.92 in 10.0 mi SSE 4.6 mph - N/A   Scattered Clouds
3:10 AM 47.7 °F - 36.9 °F 66% 29.92 in 10.0 mi SSE 4.6 mph - N/A   Scattered Clouds
3:30 AM 47.8 °F - 39.0 °F 71% 29.90 in 10.0 mi SE 4.6 mph - N/A   Clear
3:50 AM 40.6 °F 38.6 °F 34.2 °F 78% 29.90 in 10.0 mi SE 3.5 mph - N/A   Clear
4:10 AM 40.5 °F 38.4 °F 35.8 °F 83% 29.89 in 10.0 mi SSE 3.5 mph - N/A   Clear
4:30 AM 41.0 °F - 36.5 °F 84% 29.89 in 10.0 mi Calm Calm - N/A   Clear
5:10 AM 41.2 °F - 36.7 °F 84% 29.88 in 10.0 mi Calm Calm - N/A   Scattered Clouds
5:30 AM 41.9 °F 39.0 °F 39.2 °F 90% 29.88 in 10.0 mi SSE 4.6 mph - N/A   Clear
5:50 AM 39.2 °F 34.2 °F 36.9 °F 91% 29.90 in 10.0 mi NW 6.9 mph - N/A   Scattered Clouds
6:10 AM 47.1 °F - 46.4 °F 97% 29.92 in 7.0 mi NW 9.2 mph - N/A   Mostly Cloudy
6:30 AM 47.7 °F - 45.5 °F 92% 29.90 in 10.0 mi North 3.5 mph - N/A   Overcast
6:50 AM 47.7 °F - 44.6 °F 89% 29.90 in 10.0 mi Calm Calm - N/A   Mostly Cloudy
7:10 AM 46.0 °F - 43.7 °F 92% 29.89 in 10.0 mi Calm Calm - N/A   Scattered Clouds
7:30 AM 46.2 °F 45.0 °F 44.1 °F 92% 29.90 in 10.0 mi South 3.5 mph - N/A   Scattered Clouds
7:50 AM 47.5 °F - 45.0 °F 91% 29.90 in 10.0 mi Calm Calm - N/A   Scattered Clouds
8:10 AM 50.0 °F - 45.9 °F 86% 29.90 in 10.0 mi Calm Calm - N/A   Clear
8:50 AM 55.0 °F - 45.3 °F 70% 29.90 in 10.0 mi West 3.5 mph - N/A   Clear
9:10 AM 57.6 °F - 41.5 °F 55% 29.89 in 10.0 mi NW 5.8 mph - N/A   Scattered Clouds
9:30 AM 58.3 °F - 40.5 °F 52% 29.89 in 10.0 mi WNW 9.2 mph - N/A   Scattered Clouds
9:50 AM 60.1 °F - 38.3 °F 44% 29.89 in 10.0 mi NW 10.4 mph - N/A   Scattered Clouds
10:10 AM 62.6 °F - 38.1 °F 40% 29.88 in 10.0 mi WNW 9.2 mph - N/A   Scattered Clouds
10:30 AM 64.8 °F - 33.8 °F 32% 29.88 in 10.0 mi NW 13.8 mph 17.3 mph N/A   Clear
10:50 AM 65.7 °F - 32.2 °F 29% 29.88 in 10.0 mi WNW 13.8 mph 19.6 mph N/A   Clear
11:10 AM 66.2 °F - 30.2 °F 26% 29.89 in 10.0 mi WNW 18.4 mph 25.3 mph N/A   Clear
11:30 AM 66.7 °F - 29.7 °F 25% 29.89 in 10.0 mi NW 18.4 mph 24.2 mph N/A   Clear
11:50 AM 66.9 °F - 30.6 °F 26% 29.89 in 10.0 mi West 24.2 mph 29.9 mph N/A   Clear
12:10 PM 66.2 °F - 30.7 °F 27% 29.89 in 10.0 mi WNW 17.3 mph 25.3 mph N/A   Clear
12:30 PM 65.5 °F - 30.9 °F 27% 29.89 in 10.0 mi West 18.4 mph 24.2 mph N/A   Clear
12:50 PM 64.9 °F - 32.2 °F 29% 29.89 in 10.0 mi WNW 18.4 mph 25.3 mph N/A   Clear
1:10 PM 65.5 °F - 32.7 °F 30% 29.90 in 10.0 mi WNW 13.8 mph 24.2 mph N/A   Clear
1:50 PM 65.8 °F - 33.1 °F 30% 29.89 in 10.0 mi WNW 19.6 mph 26.5 mph N/A   Clear
2:10 PM 66.6 °F - 34.3 °F 30% 29.90 in 10.0 mi NW 21.9 mph 25.3 mph N/A   Clear
2:30 PM 66.4 °F - 34.7 °F 31% 29.90 in 10.0 mi NW 21.9 mph 28.8 mph N/A   Scattered Clouds
2:50 PM 63.0 °F - 36.5 °F 37% 29.90 in 10.0 mi NNW 18.4 mph 28.8 mph N/A   Mostly Cloudy
3:10 PM 61.7 °F - 36.0 °F 38% 29.91 in 10.0 mi North 23.0 mph 31.1 mph N/A   Scattered Clouds
3:30 PM 60.6 °F - 30.9 °F 33% 29.93 in 10.0 mi NNW 20.7 mph 32.2 mph N/A   Clear
3:50 PM 59.7 °F - 32.0 °F 35% 29.94 in 10.0 mi NNW 20.7 mph 26.5 mph N/A   Clear
4:10 PM 58.1 °F - 30.6 °F 35% 29.95 in 10.0 mi NW 17.3 mph 25.3 mph N/A   Clear
4:30 PM 57.6 °F - 30.7 °F 36% 29.95 in 10.0 mi NNW 16.1 mph 26.5 mph N/A   Clear
4:50 PM 56.7 °F - 30.4 °F 37% 29.96 in 10.0 mi NW 18.4 mph 24.2 mph N/A   Clear
5:10 PM 57.2 °F - 30.6 °F 36% 29.96 in 10.0 mi NNW 15.0 mph 20.7 mph N/A   Clear
5:30 PM 56.8 °F - 26.8 °F 32% 29.96 in 10.0 mi NNW 17.3 mph 25.3 mph N/A   Clear
5:50 PM 55.6 °F - 27.5 °F 34% 29.96 in 10.0 mi North 19.6 mph 27.6 mph N/A   Clear
6:10 PM 55.4 °F - 28.6 °F 36% 29.96 in 10.0 mi North 12.7 mph 17.3 mph N/A   Clear
6:30 PM 54.3 °F - 28.6 °F 37% 29.97 in 10.0 mi North 12.7 mph 23.0 mph N/A   Clear
6:50 PM 53.4 °F - 29.1 °F 39% 29.98 in 10.0 mi NNW 11.5 mph 20.7 mph N/A   Clear
7:10 PM 51.8 °F - 29.1 °F 42% 29.98 in 10.0 mi North 15.0 mph 18.4 mph N/A   Clear
7:30 PM 50.2 °F - 29.8 °F 46% 30.00 in 10.0 mi NNW 16.1 mph 21.9 mph N/A   Clear
7:50 PM 48.9 °F - 30.0 °F 48% 30.01 in 10.0 mi North 15.0 mph 20.7 mph N/A   Clear
8:10 PM 47.7 °F - 29.7 °F 50% 30.02 in 10.0 mi North 10.4 mph 25.3 mph N/A   Clear
8:30 PM 46.8 °F - 29.8 °F 52% 30.03 in 10.0 mi North 13.8 mph 23.0 mph N/A   Mostly Cloudy
8:50 PM 45.1 °F 38.1 °F 29.3 °F 54% 30.05 in 10.0 mi North 16.1 mph 23.0 mph N/A   Mostly Cloudy
9:10 PM 43.7 °F 37.7 °F 28.4 °F 55% 30.06 in 10.0 mi North 11.5 mph - N/A   Scattered Clouds
9:30 PM 42.8 °F 38.0 °F 27.7 °F 55% 30.06 in 10.0 mi North 8.1 mph - N/A   Clear
9:50 PM 42.3 °F 36.3 °F 27.5 °F 56% 30.06 in 10.0 mi NNW 10.4 mph 16.1 mph N/A   Clear
10:10 PM 41.7 °F 37.3 °F 27.3 °F 57% 30.06 in 10.0 mi NNW 6.9 mph - N/A   Clear
10:30 PM 40.6 °F 36.0 °F 27.3 °F 59% 30.06 in 10.0 mi NW 6.9 mph - N/A   Clear
10:50 PM 39.0 °F 34.8 °F 27.1 °F 62% 30.06 in 10.0 mi NW 5.8 mph - N/A   Clear
11:10 PM 37.4 °F 33.8 °F 26.8 °F 66% 30.06 in 10.0 mi NW 4.6 mph - N/A   Clear
11:30 PM 37.2 °F 34.7 °F 27.0 °F 66% 30.07 in 10.0 mi NNW 3.5 mph - N/A   Clear
11:50 PM 37.6 °F 33.1 °F 27.1 °F 66% 30.07 in 10.0 mi North 5.8 mph - N/A   Clear